Погода в Александровке Донской

Россия / Воронежская область     50°30′58″N   40°04′26″E
темп.,
°C
ветер,
м/с
пор.,
м/с
влажн.,
%
обл.,
%
осадки,
мм/ч
давл.,
гПа
погр.,
м
23 апреля, пт
пт2300:00+9ю227357 0.0 102121
03:00+8ю227656 0.0 102113
06:00+8ююв227973 0.0 102119
09:00+13ю336363 0.0 1021494
12:00+16ю34515 0.8 10191483
15:00+17юз4544100 2.6 10182217
18:00+15ююз365942 0.0 1017292
21:00+13ю3764100 0.0 1016147
24 апреля, сб
сб2400:00+11ююз51272100 0.0 1015339
03:00+9юз4885100 0.3 1013312
06:00+9ююз51182100 0.4 1012789
09:00+9ююз71282100 0.9 10111519
12:00+7зсз697492 0.8 10131118
15:00+10з91156100 1.6 10121699
18:00+8з915570 0.6 10142077
21:00+4з713580 0.6 1016846
25 апреля, вс
вс2500:00+3з814695 0.0 1017905
03:00+2зюз713701 0.0 1018750
06:00+2зюз613740 0.0 1019595
09:00+6з685324 0.0 10201218
12:00+9з573984 0.0 10202339
15:00+11з5734100 0.0 10192488
18:00+10зюз45427 0.0 1019921
21:00+6ю355099 0.0 101968
26 апреля, пн
пн2600:00+5ю3756100 0.0 1019132
03:00+4ю3116354 0.0 1017224
06:00+4ю246994 0.0 101792
09:00+9ююз475618 0.0 1016684
12:00+13ююз6844100 0.1 10142414
15:00+10зсз6765100 0.4 1013943
18:00+4сз5691100 0.3 1014397
21:00+3з4588100 1.4 1015439
27 апреля, вт
вт2700:00+2юз38923 0.0 1015275
03:00+2зюз410890 0.0 1015219
06:00+2зюз411835 0.0 1015336
09:00+6з6105520 0.0 10161536
12:00+9з7940100 0.0 10162275
15:00+10з6838100 0.0 10162335
18:00+8зюз5753100 0.0 1016913
21:00+4юз49783 0.0 1018260